Time,TemperatureF,DewpointF,PressureIn,WindDirection,WindDirectionDegrees,WindSpeedMPH,WindSpeedGustMPH,Humidity,HourlyPrecipIn,Conditions,Clouds,dailyrainin,SolarRadiationWatts/m^2,SoftwareType,DateUTC
2013-10-01 11:31:00,77.5,47.0,29.88,WSW,248,0.0,0.0,34,0.00,,---,0.00,0.00,VWS V14.01,2013-10-01 16:31:00,
2013-10-01 11:33:00,77.5,45.4,29.88,West,270,0.0,0.0,32,0.00,,---,0.00,0.00,VWS V14.01,2013-10-01 16:33:00,
2013-10-01 11:38:00,77.5,45.4,29.88,SSW,202,0.0,0.0,32,0.00,,---,0.00,0.00,VWS V14.01,2013-10-01 16:38:00,
2013-10-01 11:43:00,78.4,47.0,29.88,SW,225,0.0,0.0,33,0.00,,---,0.00,0.00,VWS V14.01,2013-10-01 16:43:00,
2013-10-01 11:49:00,78.4,47.0,29.88,WSW,248,0.0,0.0,33,0.00,,---,0.00,0.00,VWS V14.01,2013-10-01 16:49:00,
2013-10-01 11:55:00,79.0,45.8,29.88,South,180,0.0,0.0,31,0.00,,---,0.00,0.00,VWS V14.01,2013-10-01 16:55:00,
2013-10-01 12:01:00,79.3,45.2,29.88,SSW,202,0.0,0.0,30,0.00,,---,0.00,0.00,VWS V14.01,2013-10-01 17:01:00,
2013-10-01 12:07:00,79.9,43.0,29.88,WNW,292,0.0,0.0,27,0.00,,---,0.00,0.00,VWS V14.01,2013-10-01 17:07:00,
2013-10-01 12:13:00,80.1,43.1,29.88,WSW,248,0.0,0.0,27,0.00,,---,0.00,0.00,VWS V14.01,2013-10-01 17:13:00,
2013-10-01 12:20:00,80.4,41.4,29.88,WNW,292,0.0,0.0,25,0.00,,---,0.00,0.00,VWS V14.01,2013-10-01 17:20:00,
2013-10-01 12:25:00,80.6,40.5,29.91,WSW,248,0.0,0.0,24,0.00,,---,0.00,0.00,VWS V14.01,2013-10-01 17:25:00,
2013-10-01 12:30:00,81.0,38.6,29.91,West,270,0.0,0.0,22,0.00,,---,0.00,0.00,VWS V14.01,2013-10-01 17:30:00,
2013-10-01 12:36:00,81.1,37.5,29.91,WNW,292,0.0,0.0,21,0.00,,---,0.00,0.00,VWS V14.01,2013-10-01 17:36:00,
2013-10-01 12:41:00,81.1,36.3,29.91,WSW,248,0.0,0.0,20,0.00,,---,0.00,0.00,VWS V14.01,2013-10-01 17:41:00,
2013-10-01 12:46:00,81.5,37.8,29.91,SW,225,0.0,0.0,21,0.00,,---,0.00,0.00,VWS V14.01,2013-10-01 17:46:00,
2013-10-01 12:52:00,81.9,39.3,29.91,WSW,248,0.0,0.0,22,0.00,,---,0.00,0.00,VWS V14.01,2013-10-01 17:52:00,
2013-10-01 12:58:00,81.9,38.1,29.91,SW,225,0.0,0.0,21,0.00,,---,0.00,0.00,VWS V14.01,2013-10-01 17:58:00,
2013-10-01 13:03:00,82.0,38.3,29.91,WSW,248,0.0,0.0,21,0.00,,---,0.00,0.00,VWS V14.01,2013-10-01 18:03:00,
2013-10-01 13:09:00,82.4,37.3,29.91,SW,225,0.0,0.0,20,0.00,,---,0.00,0.00,VWS V14.01,2013-10-01 18:09:00,
2013-10-01 13:15:00,82.4,37.3,29.88,West,270,0.0,0.0,20,0.00,,---,0.00,0.00,VWS V14.01,2013-10-01 18:15:00,
2013-10-01 13:21:00,82.9,37.8,29.91,WSW,248,0.0,0.0,20,0.00,,---,0.00,0.00,VWS V14.01,2013-10-01 18:21:00,
2013-10-01 13:27:00,82.9,36.5,29.91,SW,225,0.0,0.0,19,0.00,,---,0.00,0.00,VWS V14.01,2013-10-01 18:27:00,
2013-10-01 13:33:00,83.1,37.9,29.91,South,180,0.0,0.0,20,0.00,,---,0.00,0.00,VWS V14.01,2013-10-01 18:33:00,
2013-10-01 13:38:00,83.5,36.9,29.91,SW,225,0.0,0.0,19,0.00,,---,0.00,0.00,VWS V14.01,2013-10-01 18:38:00,
2013-10-01 13:43:00,83.3,36.8,29.91,South,180,0.0,0.0,19,0.00,,---,0.00,0.00,VWS V14.01,2013-10-01 18:43:00,
2013-10-01 13:49:00,83.3,36.8,29.91,WSW,248,0.0,0.0,19,0.00,,---,0.00,0.00,VWS V14.01,2013-10-01 18:49:00,
2013-10-01 13:54:00,83.3,36.8,29.91,NW,315,0.0,0.0,19,0.00,,---,0.00,0.00,VWS V14.01,2013-10-01 18:54:00,
2013-10-01 13:59:00,83.7,37.1,29.91,WSW,248,0.0,0.9,19,0.00,,---,0.00,0.00,VWS V14.01,2013-10-01 18:59:00,
2013-10-01 14:05:00,83.8,37.2,29.91,WNW,292,0.0,0.0,19,0.00,,---,0.00,0.00,VWS V14.01,2013-10-01 19:05:00,
2013-10-01 14:10:00,83.5,36.9,29.91,WSW,248,0.0,0.0,19,0.00,,---,0.00,0.00,VWS V14.01,2013-10-01 19:10:00,
2013-10-01 14:16:00,83.5,36.9,29.91,WSW,248,0.0,0.0,19,0.00,,---,0.00,0.00,VWS V14.01,2013-10-01 19:16:00,
2013-10-01 14:21:00,83.8,37.2,29.91,SSW,202,0.0,0.0,19,0.00,,---,0.00,0.00,VWS V14.01,2013-10-01 19:21:00,
2013-10-01 14:26:00,84.0,37.4,29.88,WSW,248,0.0,0.0,19,0.00,,---,0.00,0.00,VWS V14.01,2013-10-01 19:26:00,
2013-10-01 14:32:00,84.0,37.4,29.88,West,270,0.0,0.0,19,0.00,,---,0.00,0.00,VWS V14.01,2013-10-01 19:32:00,
2013-10-01 14:37:00,84.0,37.4,29.88,WSW,248,0.0,0.0,19,0.00,,---,0.00,0.00,VWS V14.01,2013-10-01 19:37:00,
2013-10-01 14:43:00,84.4,37.7,29.91,SW,225,0.0,0.0,19,0.00,,---,0.00,0.00,VWS V14.01,2013-10-01 19:43:00,
2013-10-01 14:48:00,84.4,37.7,29.91,South,180,0.0,0.0,19,0.00,,---,0.00,0.00,VWS V14.01,2013-10-01 19:48:00,
2013-10-01 14:53:00,84.4,37.7,29.91,SSW,202,0.0,0.0,19,0.00,,---,0.00,0.00,VWS V14.01,2013-10-01 19:53:00,
2013-10-01 14:59:00,84.4,37.7,29.91,SSW,202,0.0,0.0,19,0.00,,---,0.00,0.00,VWS V14.01,2013-10-01 19:59:00,
2013-10-01 15:04:00,84.4,37.7,29.91,SW,225,0.0,0.0,19,0.00,,---,0.00,0.00,VWS V14.01,2013-10-01 20:04:00,
2013-10-01 15:09:00,84.4,37.7,29.88,SW,225,0.0,0.0,19,0.00,,---,0.00,0.00,VWS V14.01,2013-10-01 20:09:00,
2013-10-01 15:14:00,84.7,38.0,29.88,WSW,248,0.0,0.0,19,0.00,,---,0.00,0.00,VWS V14.01,2013-10-01 20:14:00,
2013-10-01 15:21:00,85.1,38.2,29.88,WSW,248,0.0,0.0,19,0.00,,---,0.00,0.00,VWS V14.01,2013-10-01 20:21:00,
2013-10-01 15:27:00,85.3,38.4,29.88,SSW,202,0.0,0.0,19,0.00,,---,0.00,0.00,VWS V14.01,2013-10-01 20:27:00,
2013-10-01 15:33:00,85.1,38.2,29.88,SSE,158,0.0,0.0,19,0.00,,---,0.00,0.00,VWS V14.01,2013-10-01 20:33:00,
2013-10-01 15:39:00,85.1,38.2,29.88,South,180,0.0,0.0,19,0.00,,---,0.00,0.00,VWS V14.01,2013-10-01 20:39:00,
2013-10-01 15:45:00,84.9,38.1,29.88,SW,225,0.0,0.0,19,0.00,,---,0.00,0.00,VWS V14.01,2013-10-01 20:45:00,
2013-10-01 15:51:00,84.7,38.0,29.88,SSW,202,0.0,0.0,19,0.00,,---,0.00,0.00,VWS V14.01,2013-10-01 20:51:00,
2013-10-01 15:57:00,84.7,38.0,29.88,WSW,248,0.0,0.0,19,0.00,,---,0.00,0.00,VWS V14.01,2013-10-01 20:57:00,
2013-10-01 16:05:00,84.7,38.0,29.88,WSW,248,0.0,0.0,19,0.00,,---,10.83,0.00,VWS V14.01,2013-10-01 21:05:00,
2013-10-01 16:11:00,84.6,37.8,29.88,South,180,0.0,0.0,19,0.00,,---,10.83,0.00,VWS V14.01,2013-10-01 21:11:00,
2013-10-01 16:16:00,84.6,37.8,29.88,WSW,248,0.0,0.0,19,0.00,,---,10.83,0.00,VWS V14.01,2013-10-01 21:16:00,
2013-10-01 16:21:00,84.4,37.7,29.88,SW,225,0.0,0.0,19,0.00,,---,10.83,0.00,VWS V14.01,2013-10-01 21:21:00,
2013-10-01 16:26:00,84.4,37.7,29.88,SSW,202,0.0,0.0,19,0.00,,---,10.83,0.00,VWS V14.01,2013-10-01 21:26:00,
2013-10-01 17:03:00,83.3,36.8,29.88,SSW,202,0.0,0.0,19,0.00,,---,10.83,0.00,VWS V14.01,2013-10-01 22:03:00,
2013-10-01 17:09:00,83.3,36.8,29.88,SSW,202,0.0,0.0,19,0.00,,---,10.83,0.00,VWS V14.01,2013-10-01 22:09:00,
2013-10-01 17:15:00,83.1,36.6,29.88,SW,225,0.0,0.0,19,0.00,,---,10.83,0.00,VWS V14.01,2013-10-01 22:15:00,
2013-10-01 17:21:00,82.9,37.8,29.85,SSW,202,0.0,0.0,20,0.00,,---,10.83,0.00,VWS V14.01,2013-10-01 22:21:00,
2013-10-01 17:26:00,82.8,36.3,29.85,SSW,202,0.0,0.0,19,0.00,,---,10.83,0.00,VWS V14.01,2013-10-01 22:26:00,
2013-10-01 17:31:00,82.6,36.2,29.85,SSW,202,0.0,0.0,19,0.00,,---,10.83,0.00,VWS V14.01,2013-10-01 22:31:00,
2013-10-01 17:37:00,82.4,36.0,29.88,SSW,202,0.0,0.0,19,0.00,,---,10.83,0.00,VWS V14.01,2013-10-01 22:37:00,
2013-10-01 17:42:00,82.2,37.2,29.88,SSW,202,0.0,0.0,20,0.00,,---,10.83,0.00,VWS V14.01,2013-10-01 22:42:00,
2013-10-01 17:47:00,82.0,37.0,29.88,WSW,248,0.0,0.0,20,0.00,,---,10.83,0.00,VWS V14.01,2013-10-01 22:47:00,
2013-10-01 17:54:00,81.7,36.8,29.88,SW,225,0.0,0.0,20,0.00,,---,10.83,0.00,VWS V14.01,2013-10-01 22:54:00,
2013-10-01 18:00:00,81.3,37.7,29.88,South,180,0.0,0.0,21,0.00,,---,10.83,0.00,VWS V14.01,2013-10-01 23:00:00,
2013-10-01 18:05:00,81.3,37.7,29.88,SSW,202,0.0,0.0,21,0.00,,---,10.83,0.00,VWS V14.01,2013-10-01 23:05:00,
2013-10-01 18:10:00,80.8,37.2,29.88,SSW,202,0.0,0.0,21,0.00,,---,10.83,0.00,VWS V14.01,2013-10-01 23:10:00,
2013-10-01 18:15:00,80.2,38.0,29.88,SSW,202,0.0,0.0,22,0.00,,---,10.83,0.00,VWS V14.01,2013-10-01 23:15:00,
2013-10-01 18:20:00,80.2,38.0,29.88,SSW,202,0.0,0.0,22,0.00,,---,10.83,0.00,VWS V14.01,2013-10-01 23:20:00,
2013-10-01 18:25:00,80.2,38.0,29.88,SSW,202,0.0,0.0,22,0.00,,---,10.83,0.00,VWS V14.01,2013-10-01 23:25:00,
2013-10-01 18:30:00,79.2,38.2,29.88,South,180,0.0,0.0,23,0.00,,---,10.83,0.00,VWS V14.01,2013-10-01 23:30:00,
2013-10-01 18:36:00,79.2,38.2,29.85,SSW,202,0.0,0.0,23,0.00,,---,10.83,0.00,VWS V14.01,2013-10-01 23:36:00,
2013-10-01 18:42:00,78.3,39.6,29.85,South,180,0.0,0.0,25,0.00,,---,10.83,0.00,VWS V14.01,2013-10-01 23:42:00,
2013-10-01 18:48:00,77.4,39.8,29.85,SSW,202,0.0,0.0,26,0.00,,---,10.83,0.00,VWS V14.01,2013-10-01 23:48:00,
2013-10-01 18:54:00,76.6,41.1,29.85,South,180,0.0,0.0,28,0.00,,---,10.83,0.00,VWS V14.01,2013-10-01 23:54:00,
2013-10-01 19:00:00,76.3,41.7,29.85,South,180,0.0,0.0,29,0.00,,---,10.83,0.00,VWS V14.01,2013-10-02 00:00:00,